パンスターズ彗星

476P/PanSTARRS (2014)

English version
Home page
Updated on February 21, 2024

---------------------------------------------------------------------

・ プロフィール

符号 476P/2015 HG16
発見日 2015年4月20日
発見光度 20.7等
発見者 Pan-STARRS 1 telescope (Haleakala)

・ 写真集

・ 軌道要素

                    Epoch = 2014 July  2.0 TT
     T = 2014 June 29.00506 TT        Peri. =  48.15722
     e = 0.3462740                    Node  =  59.52702 2000.0
     q = 3.1318120 AU                 Incl. =  18.86840
       a =  4.7907102 AU   n = 0.09399489   P =  10.49 years

・ 光度変化

        m1 = 12.5 + 5 logΔ + 10.0 log r

---------------------------------------------------------------------

軌道要素は、CBET 5337に掲載されたものです。
光度グラフはComet for Windowsで作成したものです。

---------------------------------------------------------------------

Copyright(C) Seiichi Yoshida (comet@aerith.net). All rights reserved.